THORAD DELTA 1 DEB, 8180

Orbit data source: Space-Track

THORAD DELTA 1 DEB, 8180 is space debris in SSO originally from a launch on Fri, 15 Nov 1974 UTC launched from the Air Force Western Test Range (AFWTR). Debris objects in space refer to the collection of defunct objects orbiting the Earth. Examples of debris include non-operational satellites, rocket bodies, and fragments generated from explosions, collisions, or faulty payload assembly.

Loading next visibility...
Identifier
8180, 1974-089AW
Orbit
SSO
Country
Flag of USUS
Related business
Manufacturer
Unknown
Mission
Spacecraft
Bus & Motor
Unknown
Mass
Unknown
Launch date (UTC)
1974-11-15 (51 years ago)
Launch vehicle
Unknown
Launch site
Air Force Western Test Range (AFWTR)
Object type
Payload
Rocket body
Debris
Shape & HBR
Unknown shape, 0.2 m
Radar Cross Section
Medium (>0.1 m² and <1 m²)

Expand to show TLE details & history
Last TLE update: 14 hours ago

TLE from 14 hours ago
0 THORAD DELTA 1 DEB
1 08180U 74089AW  26103.75511675 -.00000012  00000-0  19658-3 0  9990
2 08180 100.8842 188.4017 0111200 252.4984 261.5831 12.40177576325152
Epoch: 2026-04-13T18:07Z
TLE epoch observation values (Epoch: 2026-04-13T18:07:22.087Z)
Latitude
26.68331°
Longitude
-99.86299°
Altitude
1,522.614 km
Speed
7.1 km/s
True Right ascension
00h 55m 40s
True Declination
26° 33' 32"
Sunlit
Object was in daylight at epoch
Visualization orbit readout
Latitude
Unknown
Longitude
Unknown
Altitude
Unknown
Speed
Unknown
Apparent Right ascension
Unknown
Apparent Declination
Unknown
Sunlit
N/A
Visualization observer readout
Local Sidereal Time
14:50:36
Azimuth
Unknown
Elevation
Unknown
Doppler factor
Unknown
Orbital elements
Apogee altitude
1,591.003 km
Perigee altitude
1,415.719 km
Semi-major axis
7,881.498 km
Eccentricity
0.01112
Inclination
100.8842°
RAAN
188.4017°
Arg. of periapsis
252.4984°
True anomaly
260.32523°
Mean anomaly
261.5831°
Eccentric anomaly
260.9539°
Mean motion
3.10192 °/min
Orbital period
116.06 mins
BSTAR
0.00019658
Loading maneuver chart data...
Computing Atmospheric mass density...

Documentation

Showing up to 5 results
|